Back to catalog

ONEWEB-0363

AliveCommunicationsPO
NORAD 49289·PAYLOAD·🇬🇧 United Kingdom

Launched Oct 14, 2021 from Vostochny Cosmodrome

Loading…

Next Passes (next 24 hours)

TLE

FreshSource: CelesTrak SupGP

Epoch: Sep 14, 2026, 17:34 UTC

1 49289C 21090L   26257.73213380 -.00000588  00000+0 -14471-2 0  2571
2 49289  87.9135 256.5769 0002278  95.3392  16.9288 13.20769013    14

Track ONEWEB-0363 in real time with AllMySat

Download on the App Store